User: anonymous
Location: Unspecified
(0.0000°N, 0.0000°E)
Time: 23:37:59
(UTC+00:00)
Language:

Snapshot - Orbit

View from above orbital plane
View from above orbital plane
View from above satellite
View from above satellite

Ground track
Ground track

The orbit data is extracted from the following two-line orbital elements,

1 01314U 65027A   14260.45755679 -.00000126  00000-0 -49550-3 0  6804
2 01314 090.2878 257.1815 0028858 318.8952 196.3869 12.91736596 77477
Epoch (UTC): 17 September 2014 10:58:52
Eccentricity: 0.0028858
inclination: 90.2878°
perigee height: 1272 km
apogee height: 1317 km
right ascension of ascending node: 257.1815°
argument of perigee: 318.8952°
revolutions per day: 12.91736596
mean anomaly at epoch: 196.3869°
orbit number at epoch: 7747

The dashed part of the orbit path shows where the satellite is in the earth's shadow,  

DLR